When you browse on this site, cookies collect data to enhance your experience and personalize the content and advertising you see.
Visit our Privacy Policy to learn more. By continuing to use the site, you agree to this use of cookies and data.
  • In Czech Republic
  • List of Countries
  • For 7 days
  • Water Temperature
  • Satellite Maps
  • Weather Map
  • Weather Widgets
  • user-avatar
    Login

    Hourly Weather Warren

    Today, 17 February, Sunday

    Time Temperature Precipitation Wind Pressure Humidity
    00:00 -5°C° 0 mm 2 mps 738 mmHg 67%
    01:00 -3°C° 0 mm 1 mps 738 mmHg 69%
    02:00 -4°C° 0 mm 1 mps 738 mmHg 70%
    03:00 -6°C° 0 mm 2 mps 738 mmHg 71%
    04:00 -6°C° 0 mm 2 mps 737 mmHg 72%
    05:00 -6°C° 0 mm 2 mps 737 mmHg 72%
    06:00 -6°C° 0 mm 2 mps 737 mmHg 72%
    07:00 -7°C° 0 mm 3 mps 736 mmHg 72%
    08:00 -6°C° 0 mm 3 mps 736 mmHg 66%
    09:00 -5°C° 0 mm 3 mps 736 mmHg 60%
    10:00 -4°C° 0 mm 3 mps 736 mmHg 54%
    11:00 -1°C° 0 mm 3 mps 735 mmHg 51%
    12:00 0°C° 0 mm 3 mps 734 mmHg 48%
    13:00 +1°C° 0 mm 3 mps 734 mmHg 46%
    14:00 +1°C° 0.3 mm 2 mps 733 mmHg 56%
    15:00 +1°C° 0.3 mm 2 mps 733 mmHg 66%
    16:00 -1°C° 0.3 mm 2 mps 732 mmHg 77%
    17:00 -1°C° 0.7 mm 2 mps 732 mmHg 83%
    18:00 -1°C° 0.7 mm 2 mps 731 mmHg 88%
    19:00 -2°C° 0.7 mm 2 mps 731 mmHg 94%
    20:00 0°C° 0.1 mm 1 mps 731 mmHg 95%
    21:00 +1°C° 0.1 mm 1 mps 731 mmHg 95%
    22:00 0°C° 0.1 mm 0 mps 731 mmHg 95%
    23:00 0°C° 0 mm 1 mps 731 mmHg 96%

    Tomorrow, 18 February, Monday

    Time Temperature Precipitation Wind Pressure Humidity
    00:00 0°C° 0 mm 1 mps 731 mmHg 96%
    01:00 -2°C° 0 mm 2 mps 731 mmHg 96%
    02:00 -2°C° 0 mm 2 mps 731 mmHg 95%
    03:00 -3°C° 0 mm 2 mps 732 mmHg 94%
    04:00 -4°C° 0 mm 3 mps 732 mmHg 92%
    05:00 -5°C° 0 mm 3 mps 733 mmHg 91%
    06:00 -5°C° 0 mm 3 mps 734 mmHg 90%
    07:00 -5°C° 0 mm 3 mps 734 mmHg 90%
    08:00 -5°C° 0.1 mm 3 mps 735 mmHg 87%
    09:00 -5°C° 0.1 mm 3 mps 736 mmHg 84%
    10:00 -5°C° 0.1 mm 3 mps 737 mmHg 81%
    11:00 -5°C° 0.1 mm 3 mps 738 mmHg 79%
    12:00 -4°C° 0.1 mm 3 mps 739 mmHg 77%
    13:00 -4°C° 0.1 mm 4 mps 740 mmHg 74%
    14:00 -4°C° 0.1 mm 4 mps 740 mmHg 74%
    15:00 -4°C° 0.1 mm 4 mps 741 mmHg 75%
    16:00 -5°C° 0.1 mm 4 mps 741 mmHg 75%
    17:00 -5°C° 0 mm 4 mps 743 mmHg 76%
    18:00 -7°C° 0 mm 4 mps 744 mmHg 78%
    19:00 -8°C° 0 mm 4 mps 745 mmHg 79%
    20:00 -8°C° 0 mm 3 mps 746 mmHg 80%
    21:00 -8°C° 0 mm 3 mps 746 mmHg 80%
    22:00 -9°C° 0 mm 3 mps 747 mmHg 81%
    23:00 -9°C° 0 mm 3 mps 748 mmHg 82%

    Day after tomorrow, 19 February, Tuesday

    Time Temperature Precipitation Wind Pressure Humidity
    00:00 -9°C° 0 mm 2 mps 748 mmHg 84%
    01:00 -9°C° 0 mm 2 mps 748 mmHg 85%
    02:00 -10°C° 0 mm 2 mps 749 mmHg 85%
    03:00 -10°C° 0 mm 2 mps 749 mmHg 85%
    04:00 -9°C° 0 mm 1 mps 749 mmHg 85%
    05:00 -9°C° 0 mm 1 mps 750 mmHg 85%
    06:00 -9°C° 0 mm 1 mps 750 mmHg 86%
    07:00 -9°C° 0 mm 0 mps 751 mmHg 87%
    08:00 -8°C° 0 mm 0 mps 751 mmHg 79%
    09:00 -7°C° 0 mm 0 mps 752 mmHg 70%
    10:00 -5°C° 0 mm 0 mps 752 mmHg 62%
    11:00 -4°C° 0 mm 0 mps 752 mmHg 59%
    12:00 -2°C° 0 mm 1 mps 752 mmHg 55%
    13:00 -1°C° 0 mm 1 mps 751 mmHg 51%
    14:00 -1°C° 0 mm 1 mps 751 mmHg 51%
    15:00 -1°C° 0 mm 1 mps 750 mmHg 51%
    16:00 -1°C° 0 mm 1 mps 749 mmHg 51%
    17:00 -1°C° 0 mm 1 mps 749 mmHg 58%
    18:00 -2°C° 0 mm 1 mps 749 mmHg 64%
    19:00 -3°C° 0 mm 1 mps 749 mmHg 71%
    20:00 -3°C° 0 mm 1 mps 749 mmHg 72%
    21:00 -5°C° 0 mm 2 mps 748 mmHg 72%
    22:00 -5°C° 0 mm 2 mps 748 mmHg 73%
    23:00 -5°C° 0 mm 2 mps 748 mmHg 73%

    20 February, Wednesday

    Time Temperature Precipitation Wind Pressure Humidity
    00:00 -5°C° 0 mm 2 mps 747 mmHg 72%
    01:00 -5°C° 0 mm 2 mps 747 mmHg 72%
    02:00 -6°C° 0 mm 3 mps 746 mmHg 71%
    03:00 -6°C° 0 mm 3 mps 745 mmHg 70%
    04:00 -6°C° 0 mm 3 mps 744 mmHg 69%
    05:00 -5°C° 0 mm 4 mps 744 mmHg 69%
    06:00 -5°C° 0 mm 4 mps 743 mmHg 69%
    07:00 -4°C° 0 mm 4 mps 743 mmHg 70%
    08:00 -4°C° 0.1 mm 5 mps 742 mmHg 74%
    09:00 -4°C° 0.1 mm 6 mps 741 mmHg 77%
    10:00 -3°C° 0.1 mm 6 mps 741 mmHg 81%
    11:00 -2°C° 0.1 mm 6 mps 740 mmHg 83%
    12:00 -1°C° 0.1 mm 6 mps 739 mmHg 84%
    13:00 -1°C° 0.1 mm 6 mps 737 mmHg 86%
    14:00 +1°C° 0.2 mm 6 mps 737 mmHg 87%
    15:00 +1°C° 0.2 mm 6 mps 736 mmHg 89%
    16:00 +2°C° 0.2 mm 6 mps 735 mmHg 91%
    17:00 +2°C° 0.2 mm 6 mps 735 mmHg 92%
    18:00 +3°C° 0.2 mm 6 mps 734 mmHg 93%
    19:00 +3°C° 0.2 mm 6 mps 734 mmHg 94%
    20:00 +3°C° 0.1 mm 5 mps 734 mmHg 94%
    21:00 +5°C° 0.1 mm 5 mps 734 mmHg 94%
    22:00 +5°C° 0.1 mm 5 mps 734 mmHg 94%
    23:00 +5°C° 0.1 mm 5 mps 734 mmHg 95%

    21 February, Thursday

    Time Temperature Precipitation Wind Pressure Humidity
    00:00 +5°C° 0.1 mm 4 mps 734 mmHg 95%
    01:00 +5°C° 0.1 mm 4 mps 735 mmHg 96%
    02:00 +4°C° 0 mm 3 mps 735 mmHg 95%
    03:00 +2°C° 0 mm 3 mps 735 mmHg 95%
    04:00 0°C° 0 mm 3 mps 736 mmHg 94%
    05:00 +1°C° 0 mm 2 mps 736 mmHg 95%
    06:00 +1°C° 0 mm 2 mps 737 mmHg 95%
    07:00 +1°C° 0 mm 2 mps 738 mmHg 95%
    08:00 0°C° 0 mm 3 mps 739 mmHg 91%
    09:00 +1°C° 0 mm 3 mps 739 mmHg 88%
    10:00 +1°C° 0 mm 3 mps 740 mmHg 84%
    11:00 +2°C° 0 mm 3 mps 740 mmHg 81%
    12:00 +2°C° 0 mm 3 mps 740 mmHg 78%
    13:00 +3°C° 0 mm 3 mps 740 mmHg 75%
    14:00 +3°C° 0 mm 3 mps 740 mmHg 76%
    15:00 +3°C° 0 mm 3 mps 741 mmHg 77%
    16:00 +2°C° 0 mm 3 mps 741 mmHg 78%
    17:00 +2°C° 0 mm 2 mps 741 mmHg 82%
    18:00 +2°C° 0 mm 1 mps 742 mmHg 85%
    19:00 +1°C° 0 mm 1 mps 742 mmHg 89%
    20:00 +1°C° 0.1 mm 1 mps 742 mmHg 90%
    21:00 +1°C° 0.1 mm 1 mps 742 mmHg 91%
    22:00 +1°C° 0.1 mm 1 mps 741 mmHg 91%
    23:00 +1°C° 0.1 mm 1 mps 741 mmHg 91%

    22 February, Friday

    Time Temperature Precipitation Wind Pressure Humidity
    00:00 +1°C° 0.1 mm 1 mps 741 mmHg 91%
    01:00 +1°C° 0.1 mm 1 mps 741 mmHg 91%
    02:00 -1°C° 0.1 mm 2 mps 741 mmHg 91%
    03:00 -2°C° 0.1 mm 2 mps 741 mmHg 91%
    04:00 -2°C° 0.1 mm 2 mps 741 mmHg 91%
    05:00 -2°C° 0.2 mm 2 mps 741 mmHg 91%
    06:00 -2°C° 0.2 mm 2 mps 741 mmHg 91%
    07:00 -2°C° 0.2 mm 2 mps 741 mmHg 92%
    08:00 -1°C° 0 mm 2 mps 741 mmHg 89%
    09:00 +2°C° 0 mm 1 mps 741 mmHg 86%
    10:00 +3°C° 0 mm 1 mps 741 mmHg 83%
    11:00 +5°C° 0 mm 1 mps 741 mmHg 79%
    12:00 +6°C° 0 mm 1 mps 741 mmHg 76%
    13:00 +8°C° 0 mm 1 mps 741 mmHg 72%
    14:00 +8°C° 0 mm 1 mps 741 mmHg 73%
    15:00 +8°C° 0 mm 1 mps 741 mmHg 74%
    16:00 +8°C° 0 mm 1 mps 741 mmHg 74%
    17:00 +5°C° 0 mm 2 mps 741 mmHg 80%
    18:00 +3°C° 0 mm 2 mps 741 mmHg 86%
    19:00 +1°C° 0 mm 2 mps 741 mmHg 92%
    20:00 -1°C° 0 mm 2 mps 742 mmHg 92%
    21:00 0°C° 0 mm 1 mps 742 mmHg 92%
    22:00 0°C° 0 mm 1 mps 742 mmHg 91%
    23:00 -1°C° 0 mm 1 mps 742 mmHg 91%
    Show more